Location: Newark
(40.4667°N, 5.6000°W)
Time: 19:59:23
(UTC+00:00)

A-11 Canister half - Pass Details

Date: 22 November 2019
Orbit: 1526 x 1683 km, 47.3° (Epoch: 10 December)

Event Time Altitude Azimuth Distance (km) Brightness Sun altitude
Rises 19:48:58 0° 289° (WNW) 4,767 12.6 -31.8°
Reaches altitude 10° 19:53:48 10° 269° (W) 3,749 11.9 -32.7°
Maximum altitude 19:58:37 15° 237° (WSW) 3,315 11.3 -33.6°
Drops below altitude 10° 20:03:25 10° 205° (SSW) 3,696 11.2 -34.6°
Sets 20:08:10 0° 184° (S) 4,663 11.6 -35.5°
